Regional Weather Roundup
Issued by NWS

Home | Current Version | Previous Version | Text Only | Print | Product List | Glossary On
Versions: 1 2 3 4 5 6 7 8 9 10 11 12 13 14 15 16 17 18 19 20 21 22 23 24 25 26 27 28 29 30 31 32 33 34 35 36 37 38 39 40 41 42 43 44 45 46 47 48 49 50
000
ASUS44 KLIX 300211
RWRLA
LOUISIANA WEATHER ROUNDUP
NATIONAL WEATHER SERVICE NEW ORLEANS LA
900 PM CDT FRI JUL 29 2016

NOTE: "FAIR" INDICATES FEW OR NO CLOUDS BELOW 12,000 FEET WITH NO
      SIGNIFICANT WEATHER AND/OR OBSTRUCTIONS TO VISIBILITY.
      SKY/WX - SKY CONDITION AND SIGNIFICANT WEATHER.
      TMP - AIR TEMPERATURE.    DP   - DEWPOINT TEMPERATURE.
      RH  - RELATIVE HUMIDITY.  PRES - PRESSURE.
      HX  - HEAT INDEX.         WCI  - WIND CHILL INDEX.

*  THESE STATIONS ARE NOT NWS OR FAA STATIONS AND ARE NOT UNDER
   NWS QUALITY CONTROL.

LAZ040-048-061>063-065-066-069-300300-
SOUTHEAST LOUISIANA

CITY           SKY/WX    TMP DP  RH WIND       PRES   REMARKS
N.O. AUDUBON     N/A     81  76  83 MISG        N/A
N.O. INTL ARPT PTCLDY    82  73  74 S3        30.00R
N.O. LAKEFRONT CLEAR     83  73  72 S8        30.00R
N.O. DOWNTOWN* FAIR      84  75  74 S5        30.01R
RESERVE*       FAIR      78  75  92 CALM      30.01R
SLIDELL        PTCLDY    82  76  81 VRB3      30.00R
BATON ROUGE    CLOUDY    83  75  77 SE3       30.00R
BOOTHVILLE     CLEAR     83  76  79 S3        30.02R
BELLE CHASSE   PTCLDY    81  74  79 S5        30.00R
BOGALUSA*      FAIR      82  76  84 SW3       30.02R
GALLIANO*      CLEAR     73  73 100 CALM      30.01R
NEW ROADS*     FAIR      78  74  88 CALM      29.99S
GONZALES*      FAIR      80  75  86 CALM      30.01R
HAMMOND*       CLOUDY    81  72  74 CALM      30.01R
HOUMA*         CLEAR     78  75  90 CALM      30.01R
PORT FOURCHON* PTCLDY    86  75  70 S7        30.01S HX  95

$$

LAZ041-044-053-054-300300-
SOUTHWEST LOUISIANA

CITY           SKY/WX    TMP DP  RH WIND       PRES   REMARKS
LAKE CHARLES   CLEAR     83  76  79 S3        29.96S
LAFAYETTE      CLEAR     80  76  87 CALM      29.99R
PATTERSON      CLEAR     80  78  94 SE3       30.01R
SALT POINT       N/A     83  75  77 CALM      29.99R
NEW IBERIA     CLEAR     80  76  87 SE3       30.00R
CHENAULT AIRPK PTCLDY    81  75  83 E3        29.97

$$

LAZ027-028-300300-
CENTRAL LOUISIANA

CITY           SKY/WX    TMP DP  RH WIND       PRES   REMARKS
FORT POLK      PTCLDY    80  73  80 SE6       29.97R
ALEXANDRIA INT MOCLDY    77  74  90 SE3       29.96R
ALEXANDRIA     CLOUDY    77  77 100 CALM      29.98R

$$

LAZ001-002-300300-
NORTHWEST LOUISIANA

CITY           SKY/WX    TMP DP  RH WIND       PRES   REMARKS
SHREVEPORT     PTCLDY    85  74  69 S6        29.93R
BARKSDALE AFB  MOCLDY    82  74  77 SE6       29.94R
DTN SHREVEPORT CLEAR     87  72  60 S5        29.94R

$$

LAZ014-016-300300-
NORTHEAST LOUISIANA

CITY           SKY/WX    TMP DP  RH WIND       PRES   REMARKS
MONROE         CLEAR     81  78  91 CALM      29.96R
TALLULAH       PTCLDY    82  76  81 CALM      29.97R

$$




USA.gov is the U.S. government's official web portal to all federal, state and local government web resources and services.